Retour au catalogue

COSMOS 1818 COOLANT

LostLEO
NORAD 36952·DEBRIS·🇷🇺 Russia

Lancé Feb 1, 1987 depuis Baikonur Cosmodrome

Loading…

Prochains Passages (prochaines 24 heures)

TLE

PériméSource: Space-Track

Époque: Feb 3, 2012, 19:35 UTC

1 36952U 87011AG  12034.81598578  .00096644  00000-0  35036-1 0  9990
2 36952 065.0360 183.2468 0018170 250.1097 104.8140 14.32527113113552

Suivez COSMOS 1818 COOLANT en temps réel avec AllMySat

Download on the App Store